TRANSIT 16 [?] 1 02807U 67048A 21017.49845707 .00000023 00000-0 19996-4 0 9990 2 02807 89.6337 55.0077 0018400 249.5912 228.8582 13.50250120641649 TRANSIT 17 [?] 1 02965U 67092A 21016.86942095 .00000055 00000-0 64534-4 0 9995 2 02965 89.2677 162.4109 0048576 36.3412 117.6404 13.52962593628784 TRANSIT 18 [?] 1 03133U 68012A 21016.77773160 .00000065 00000-0 85223-4 0 9990 2 03133 89.9922 271.7736 0074586 318.5129 105.1099 13.51088979327393 NNSS 19 [?] 1 04507U 70067A 21017.55309256 .00000075 00000-0 89788-4 0 9998 2 04507 89.8891 244.2370 0173825 77.8037 284.2523 13.50757601480903 NNSS O-20 [?] 1 06909U 73081A 21017.19655754 .00000131 00000-0 12378-3 0 9995 2 06909 89.8159 287.5215 0158281 43.4709 317.8805 13.70581662558580 TRANSAT [?] 1 10457U 77106A 21016.86471141 .00000054 00000-0 70285-4 0 9995 2 10457 89.7142 138.2105 0024117 318.4486 156.2517 13.48636594126037 NOVA I [?] 1 12458U 81044A 21016.85756928 .00000055 00000-0 10917-3 0 9998 2 12458 89.9099 112.7922 0013909 8.9065 109.2597 13.23028738915038 NOVA 3 [?] 1 15362U 84110A 21017.55391282 .00000053 00000-0 10735-3 0 9994 2 15362 90.0791 62.6142 0030502 220.9998 251.4051 13.22798189750577 OSCAR 30 [?] 1 15935U 85066A 21017.19688041 .00000024 00000-0 24480-4 0 9994 2 15935 90.1642 69.2691 0171276 94.5522 328.9114 13.35703153725554 OSCAR 24 [?] 1 15936U 85066B 21017.53913486 .00000032 00000-0 38672-4 0 9994 2 15936 90.1541 61.6234 0171667 98.7865 63.3061 13.35568446727672 POLAR BEAR [?] 1 17070U 86088A 21016.75682403 .00000052 00000-0 42446-4 0 9991 2 17070 89.5367 262.1486 0040486 119.2680 305.6762 13.74815183713688 OSCAR 27 [?] 1 18361U 87080A 21017.04534922 .00000011 00000-0 53870-5 0 9992 2 18361 90.3154 17.5622 0103100 312.3856 46.8599 13.44510935635177 OSCAR 29 [?] 1 18362U 87080B 21017.54260691 -.00000003 00000-0 -16830-4 0 9994 2 18362 90.3159 17.8606 0105283 330.3462 146.7652 13.44105982634851 OSCAR 23 [?] 1 19070U 88033A 21016.86338094 .00000062 00000-0 10587-3 0 9992 2 19070 90.3559 319.5924 0191689 119.4335 300.7116 13.27478366584915 OSCAR 32 [?] 1 19071U 88033B 21016.85025462 .00000087 00000-0 15469-3 0 9995 2 19071 90.3559 319.6677 0190051 107.9508 306.3476 13.27660914585158 NOVA 11 [?] 1 19223U 88052A 21017.48446929 .00000022 00000-0 31141-4 0 9995 2 19223 89.9686 82.3809 0028640 266.2646 106.4252 13.22713881573075 OSCAR 25 [?] 1 19419U 88074A 21017.50702534 .00000017 00000-0 14605-4 0 9996 2 19419 89.9950 17.8260 0095092 312.9933 160.2067 13.42244904586492 OSCAR 31 [?] 1 19420U 88074B 21017.06887078 .00000006 00000-0 -37007-5 0 9997 2 19420 89.9960 17.9513 0093103 308.3711 116.3331 13.42259238586549